NORTHERN NASSAU  -  Rip Current Statement Rip Current Statement     Air Quality Alert Air Quality Alert        NORTHERN QUEENS  -  Rip Current Statement Rip Current Statement     Air Quality Alert Air Quality Alert        SOUTHERN NASSAU  -  Rip Current Statement Rip Current Statement     Air Quality Alert Air Quality Alert        SOUTHERN QUEENS  -  Rip Current Statement Rip Current Statement     Air Quality Alert Air Quality Alert        NORTHEAST SUFFOLK  -  Air Quality Alert Air Quality Alert        NORTHWEST SUFFOLK  -  Air Quality Alert Air Quality Alert        SOUTHEAST SUFFOLK  -  Air Quality Alert Air Quality Alert        SOUTHWEST SUFFOLK  -  Air Quality Alert Air Quality Alert      

Active alerts

Northern Queens
  Details for Northern Queens Rip Current Statement  +1 additional alert
Southern Queens
  Details for Southern Queens Rip Current Statement  +1 additional alert
Northern Nassau
  Details for Northern Nassau Rip Current Statement  +1 additional alert
Southern Nassau
  Details for Southern Nassau Rip Current Statement  +1 additional alert
Northwest Suffolk
  Details for Northwest Suffolk Air Quality Alert
Southwest Suffolk
  Details for Southwest Suffolk Air Quality Alert
Northeast Suffolk
  Details for Northeast Suffolk Air Quality Alert
Southeast Suffolk
  Details for Southeast Suffolk Air Quality Alert


WXM80 ListenWXM80 Stop

You find our weather info also at:

UK Metoffice

WeatherCloud

Weather Underground

Northeastern Weather Network

AWEKAS

Citizen Weather Observer Program (CWOP)

HAMweather, WeatherForYou, PWS Weather


Weather Underground History page Text

Daily Summary for February 10, 2018 Units:  English    Metric   Both
« Previous Day
Next Day »
Daily Weekly Monthly Yearly Custom
  High: Low: Average:
Temperature: 47.9 °F 35.8 °F 41.1 °F
Dew Point: 45.5 °F 31.7 °F 38.3 °F
Humidity: 97 % 76 % 90 %
Wind Speed: 4.4 mph 0.0 mph 0.6 mph
Wind Gust: 9.2 mph - -
Wind:- - South
Pressure: 30.16 in 29.76 in -
Precipitation: 0.13 in    
Historical Graphs
 
 
Tabular Data for February 10, 2018
Time Temperature Dew Point Pressure Wind Wind Speed Wind Gust Humidity Rainfall Rate (Hourly)
00:01 35.9 °F 31.8 °F 30.16 in Calm   1.2 mph 85 % 0.00 in
00:06 35.8 °F 31.7 °F 30.16 in Calm     85 % 0.00 in
00:11 35.9 °F 31.8 °F 30.15 in SW 0.2 mph 1.2 mph 85 % 0.00 in
00:16 35.9 °F 32.1 °F 30.15 in Calm     86 % 0.00 in
00:21 35.9 °F 32.1 °F 30.14 in SSE 1.6 mph 4.6 mph 86 % 0.00 in
00:26 36.0 °F 32.5 °F 30.14 in Calm   1.2 mph 87 % 0.00 in
00:31 36.2 °F 32.7 °F 30.14 in SSE 0.1 mph 1.2 mph 87 % 0.00 in
00:36 36.2 °F 32.7 °F 30.14 in Calm     87 % 0.00 in
00:41 36.3 °F 32.8 °F 30.14 in SSE 0.1 mph 2.3 mph 87 % 0.00 in
00:46 36.3 °F 32.8 °F 30.14 in SSE 0.6 mph 3.5 mph 87 % 0.00 in
00:51 36.4 °F 32.9 °F 30.13 in South 0.7 mph 3.5 mph 87 % 0.00 in
00:56 36.5 °F 33.0 °F 30.13 in South 0.1 mph 2.3 mph 87 % 0.00 in
01:01 36.6 °F 33.1 °F 30.13 in Calm   3.5 mph 87 % 0.00 in
01:06 36.6 °F 33.1 °F 30.13 in SSE 1.0 mph 4.0 mph 87 % 0.00 in
01:11 36.7 °F 33.2 °F 30.13 in SSE 0.6 mph 2.3 mph 87 % 0.00 in
01:16 36.7 °F 33.2 °F 30.12 in South 0.2 mph 2.0 mph 87 % 0.00 in
01:21 36.8 °F 33.3 °F 30.12 in South 0.5 mph 3.5 mph 87 % 0.00 in
01:27 36.9 °F 33.4 °F 30.12 in Calm   1.2 mph 87 % 0.00 in
01:32 37.1 °F 33.6 °F 30.12 in South 0.3 mph 3.0 mph 87 % 0.00 in
01:37 37.3 °F 33.8 °F 30.12 in South 0.1 mph 2.0 mph 87 % 0.00 in
01:42 37.4 °F 33.9 °F 30.12 in South 0.1 mph 2.3 mph 87 % 0.00 in
01:47 37.5 °F 34.0 °F 30.12 in South 2.4 mph 4.0 mph 87 % 0.00 in
01:52 37.8 °F 34.3 °F 30.11 in SSE 0.3 mph 2.0 mph 87 % 0.00 in
01:57 38.0 °F 34.5 °F 30.11 in South 0.4 mph 2.3 mph 87 % 0.00 in
02:02 38.0 °F 34.2 °F 30.11 in SSE 1.9 mph 3.5 mph 86 % 0.00 in
02:07 38.2 °F 34.4 °F 30.10 in SSW 3.0 mph 6.9 mph 86 % 0.00 in
02:12 38.3 °F 34.5 °F 30.10 in Calm   2.3 mph 86 % 0.00 in
02:17 38.5 °F 34.7 °F 30.10 in SSW 1.4 mph 3.5 mph 86 % 0.00 in
02:22 38.7 °F 34.9 °F 30.10 in South 1.3 mph 3.5 mph 86 % 0.00 in
02:27 38.8 °F 35.0 °F 30.09 in South 1.5 mph 3.5 mph 86 % 0.00 in
02:32 38.9 °F 35.1 °F 30.09 in SSW 2.3 mph 3.5 mph 86 % 0.00 in
02:37 39.0 °F 35.2 °F 30.09 in South 2.5 mph 4.0 mph 86 % 0.00 in
02:42 39.1 °F 35.3 °F 30.09 in South 0.6 mph 2.3 mph 86 % 0.00 in
02:48 39.3 °F 35.5 °F 30.08 in SSE 1.3 mph 4.6 mph 86 % 0.00 in
02:53 39.4 °F 35.6 °F 30.08 in South 0.3 mph 3.5 mph 86 % 0.00 in
02:58 39.5 °F 35.4 °F 30.08 in South 3.1 mph 5.0 mph 85 % 0.00 in
03:03 39.5 °F 35.4 °F 30.08 in South 3.4 mph 5.8 mph 85 % 0.00 in
03:08 39.5 °F 35.4 °F 30.08 in SSW 2.0 mph 3.5 mph 85 % 0.00 in
03:13 39.5 °F 35.4 °F 30.07 in South 3.1 mph 4.6 mph 85 % 0.00 in
03:18 39.6 °F 35.5 °F 30.08 in Calm     85 % 0.00 in
03:23 39.6 °F 35.5 °F 30.08 in SW 2.9 mph 3.5 mph 85 % 0.00 in
03:28 39.6 °F 35.8 °F 30.08 in WSW 0.4 mph 2.0 mph 86 % 0.00 in
03:30 39.7 °F 35.9 °F 30.08 in WSW 0.8 mph 3.5 mph 86 % 0.00 in
03:35 39.7 °F 35.9 °F 30.08 in Calm     86 % 0.00 in
03:40 39.7 °F 35.9 °F 30.08 in WSW 0.5 mph 2.3 mph 86 % 0.00 in
03:45 39.8 °F 36.0 °F 30.07 in SSW 1.2 mph 2.3 mph 86 % 0.00 in
03:50 39.8 °F 36.0 °F 30.07 in SSW 0.4 mph 1.2 mph 86 % 0.00 in
03:55 39.8 °F 36.0 °F 30.07 in SSW 0.3 mph 1.2 mph 86 % 0.00 in
04:00 39.8 °F 36.0 °F 30.07 in Calm     86 % 0.00 in
04:05 39.8 °F 36.0 °F 30.07 in Calm     86 % 0.00 in
04:10 39.8 °F 36.0 °F 30.07 in SSW 0.2 mph 1.0 mph 86 % 0.00 in
04:15 39.8 °F 36.0 °F 30.07 in Calm     86 % 0.00 in
04:21 39.7 °F 35.9 °F 30.07 in SSW 0.3 mph   86 % 0.00 in
04:26 39.7 °F 35.9 °F 30.07 in Calm   1.0 mph 86 % 0.00 in
04:31 39.7 °F 35.9 °F 30.07 in Calm   2.0 mph 86 % 0.00 in
04:36 39.7 °F 35.9 °F 30.07 in Calm     86 % 0.00 in
04:41 39.7 °F 35.9 °F 30.07 in WSW 1.6 mph 3.5 mph 86 % 0.00 in
04:46 39.6 °F 35.8 °F 30.07 in Calm     86 % 0.00 in
04:51 39.5 °F 35.7 °F 30.07 in Calm     86 % 0.00 in
04:56 39.5 °F 35.7 °F 30.07 in Calm     86 % 0.00 in
05:01 39.5 °F 35.7 °F 30.07 in Calm     86 % 0.00 in
05:06 39.3 °F 35.5 °F 30.07 in Calm     86 % 0.00 in
05:11 39.3 °F 35.5 °F 30.07 in Calm     86 % 0.00 in
05:16 39.2 °F 35.4 °F 30.07 in Calm     86 % 0.00 in
05:21 39.0 °F 35.2 °F 30.07 in Calm     86 % 0.00 in
05:26 38.9 °F 35.1 °F 30.07 in Calm     86 % 0.00 in
05:31 38.8 °F 35.0 °F 30.07 in Calm     86 % 0.00 in
05:36 38.7 °F 34.9 °F 30.07 in Calm     86 % 0.00 in
05:41 38.5 °F 34.7 °F 30.07 in Calm     86 % 0.00 in
05:46 38.3 °F 34.5 °F 30.07 in Calm     86 % 0.00 in
05:51 38.2 °F 34.4 °F 30.07 in Calm   1.2 mph 86 % 0.00 in
05:56 37.9 °F 34.1 °F 30.07 in West 0.4 mph 2.0 mph 86 % 0.00 in
06:01 37.8 °F 34.0 °F 30.07 in Calm     86 % 0.00 in
06:06 37.6 °F 33.8 °F 30.07 in Calm     86 % 0.00 in
06:11 37.4 °F 33.9 °F 30.06 in Calm     87 % 0.00 in
06:16 37.2 °F 33.7 °F 30.07 in Calm     87 % 0.00 in
06:22 37.1 °F 33.6 °F 30.06 in Calm     87 % 0.00 in
06:27 36.9 °F 33.4 °F 30.06 in Calm     87 % 0.00 in
06:32 36.7 °F 33.2 °F 30.06 in Calm     87 % 0.00 in
06:37 36.6 °F 33.1 °F 30.06 in Calm     87 % 0.00 in
06:42 36.4 °F 32.9 °F 30.06 in Calm     87 % 0.00 in
06:47 36.3 °F 32.8 °F 30.06 in Calm     87 % 0.00 in
06:52 36.2 °F 33.0 °F 30.06 in Calm     88 % 0.00 in
06:57 36.1 °F 32.9 °F 30.06 in Calm     88 % 0.00 in
07:02 36.0 °F 33.1 °F 30.06 in Calm     89 % 0.00 in
07:03 35.9 °F 33.0 °F 30.06 in Calm     89 % 0.00 in
07:08 35.9 °F 33.0 °F 30.06 in Calm     89 % 0.00 in
07:13 35.8 °F 32.9 °F 30.06 in Calm     89 % 0.00 in
07:18 35.9 °F 33.3 °F 30.06 in Calm     90 % 0.00 in
07:23 35.9 °F 33.3 °F 30.06 in Calm     90 % 0.00 in
07:28 35.9 °F 33.3 °F 30.06 in Calm     90 % 0.00 in
07:34 36.0 °F 33.4 °F 30.06 in Calm     90 % 0.00 in
07:39 36.1 °F 33.7 °F 30.06 in Calm     91 % 0.00 in
07:44 36.2 °F 33.8 °F 30.06 in Calm     91 % 0.00 in
07:49 36.3 °F 33.9 °F 30.06 in Calm     91 % 0.00 in
07:54 36.4 °F 34.3 °F 30.06 in Calm     92 % 0.00 in
07:59 36.5 °F 34.4 °F 30.06 in Calm     92 % 0.00 in
08:04 36.6 °F 34.5 °F 30.06 in Calm     92 % 0.00 in
08:09 36.8 °F 34.7 °F 30.06 in Calm     92 % 0.00 in
08:14 37.0 °F 34.9 °F 30.06 in Calm     92 % 0.00 in
08:19 37.4 °F 35.6 °F 30.06 in Calm     93 % 0.00 in
08:24 37.7 °F 35.9 °F 30.06 in Calm     93 % 0.00 in
08:29 38.0 °F 36.2 °F 30.05 in Calm     93 % 0.00 in
08:34 38.3 °F 36.5 °F 30.05 in Calm     93 % 0.00 in
08:39 38.6 °F 36.8 °F 30.05 in Calm     93 % 0.00 in
08:44 39.1 °F 37.2 °F 30.05 in Calm     93 % 0.00 in
08:49 39.7 °F 37.8 °F 30.05 in Calm     93 % 0.00 in
08:54 40.6 °F 38.7 °F 30.04 in Calm     93 % 0.00 in
08:59 41.3 °F 39.4 °F 30.04 in Calm     93 % 0.00 in
09:04 42.0 °F 40.1 °F 30.04 in SW 3.4 mph 5.8 mph 93 % 0.00 in
09:10 42.9 °F 41.0 °F 30.04 in SSW 2.2 mph 5.8 mph 93 % 0.00 in
09:15 43.8 °F 42.2 °F 30.04 in SW 3.1 mph 6.9 mph 94 % 0.00 in
09:20 44.9 °F 43.3 °F 30.04 in SSW 2.6 mph 9.2 mph 94 % 0.00 in
09:25 45.8 °F 43.9 °F 30.04 in SW 0.9 mph 6.9 mph 93 % 0.00 in
09:30 46.4 °F 44.2 °F 30.03 in SW 1.6 mph 4.6 mph 92 % 0.00 in
09:35 46.8 °F 44.0 °F 30.03 in WNW 1.1 mph 2.3 mph 90 % 0.00 in
09:40 47.0 °F 43.3 °F 30.03 in Calm     87 % 0.00 in
09:45 47.0 °F 42.4 °F 30.02 in WNW 0.2 mph 1.2 mph 84 % 0.00 in
09:50 47.1 °F 42.2 °F 30.02 in WNW 0.5 mph 2.3 mph 83 % 0.00 in
09:55 47.2 °F 41.7 °F 30.02 in Calm     81 % 0.00 in
10:00 47.4 °F 42.8 °F 30.02 in SW 4.3 mph 8.1 mph 84 % 0.00 in
10:05 47.6 °F 43.3 °F 30.02 in WSW 3.3 mph 5.8 mph 85 % 0.00 in
10:10 47.8 °F 42.9 °F 30.02 in West 0.2 mph 3.0 mph 83 % 0.00 in
10:15 47.9 °F 43.0 °F 30.03 in WSW 1.5 mph 3.5 mph 83 % 0.00 in
10:20 47.9 °F 42.3 °F 30.02 in WNW 2.8 mph 4.0 mph 81 % 0.00 in
10:26 47.2 °F 40.0 °F 30.02 in NW 2.0 mph 5.0 mph 76 % 0.00 in
10:31 46.6 °F 39.4 °F 30.02 in Calm   4.0 mph 76 % 0.00 in
10:36 46.1 °F 39.6 °F 30.02 in NW 2.3 mph 3.5 mph 78 % 0.00 in
10:41 46.0 °F 40.2 °F 30.02 in NW 1.0 mph 2.0 mph 80 % 0.00 in
10:46 45.9 °F 40.1 °F 30.02 in NNW 3.0 mph 6.0 mph 80 % 0.00 in
10:51 45.8 °F 39.7 °F 30.02 in Calm   3.0 mph 79 % 0.00 in
10:56 45.4 °F 39.6 °F 30.02 in North 0.1 mph 1.2 mph 80 % 0.00 in
11:01 45.1 °F 39.6 °F 30.02 in Calm     81 % 0.00 in
11:06 44.8 °F 39.6 °F 30.02 in Calm   2.0 mph 82 % 0.00 in
11:11 44.4 °F 39.2 °F 30.02 in North 1.0 mph 2.0 mph 82 % 0.00 in
11:16 44.1 °F 39.0 °F 30.01 in North 0.2 mph 1.2 mph 82 % 0.00 in
11:21 43.7 °F 38.9 °F 30.01 in Calm   2.0 mph 83 % 0.00 in
11:26 43.6 °F 39.1 °F 30.01 in Calm   2.0 mph 84 % 0.00 in
11:31 43.6 °F 39.0 °F 30.01 in Calm   1.0 mph 84 % 0.00 in
11:36 43.5 °F 39.3 °F 30.01 in North 0.2 mph 2.3 mph 85 % 0.00 in
11:41 43.4 °F 39.2 °F 30.01 in Calm   1.0 mph 85 % 0.00 in
11:46 43.4 °F 39.2 °F 30.00 in Calm   1.0 mph 85 % 0.00 in
11:51 43.3 °F 39.4 °F 29.99 in Calm   2.0 mph 86 % 0.00 in
11:56 43.3 °F 39.4 °F 29.99 in Calm   3.0 mph 86 % 0.00 in
12:01 43.3 °F 39.4 °F 29.99 in North 0.4 mph 1.2 mph 86 % 0.00 in
12:06 43.4 °F 39.8 °F 29.98 in North 0.4 mph 4.0 mph 87 % 0.00 in
12:11 43.6 °F 40.0 °F 29.98 in ENE 1.7 mph 3.5 mph 87 % 0.00 in
12:16 43.7 °F 40.1 °F 29.98 in NNE 2.2 mph 4.0 mph 87 % 0.00 in
12:21 43.8 °F 40.2 °F 29.97 in NNE 3.4 mph 4.6 mph 87 % 0.00 in
12:26 43.9 °F 40.3 °F 29.97 in NE 1.4 mph 3.5 mph 87 % 0.00 in
12:31 44.1 °F 40.5 °F 29.97 in NE 1.3 mph 2.3 mph 87 % 0.00 in
12:36 44.1 °F 40.5 °F 29.97 in ENE 1.7 mph 2.3 mph 87 % 0.00 in
12:41 44.2 °F 40.6 °F 29.96 in ENE 2.3 mph 3.5 mph 87 % 0.00 in
12:46 44.3 °F 40.7 °F 29.96 in ENE 0.3 mph 2.3 mph 87 % 0.00 in
12:51 44.5 °F 40.9 °F 29.96 in ENE 0.5 mph 1.2 mph 87 % 0.00 in
12:56 44.7 °F 41.1 °F 29.95 in ENE 0.5 mph 1.2 mph 87 % 0.00 in
13:01 44.8 °F 41.2 °F 29.94 in ENE 1.3 mph 3.0 mph 87 % 0.00 in
13:06 45.0 °F 41.4 °F 29.94 in ENE 2.4 mph 4.0 mph 87 % 0.00 in
13:12 45.1 °F 41.5 °F 29.94 in ENE 2.7 mph 3.5 mph 87 % 0.00 in
13:17 45.0 °F 41.1 °F 29.94 in ENE 1.6 mph 4.6 mph 86 % 0.00 in
13:22 44.6 °F 40.7 °F 29.93 in NE 3.7 mph 6.9 mph 86 % 0.00 in
13:27 44.3 °F 40.4 °F 29.93 in ENE 2.7 mph 3.5 mph 86 % 0.00 in
13:32 44.1 °F 40.2 °F 29.93 in ENE 3.5 mph 3.5 mph 86 % 0.00 in
13:37 44.0 °F 40.4 °F 29.93 in ENE 1.3 mph 3.5 mph 87 % 0.00 in
13:42 43.8 °F 40.5 °F 29.93 in ENE 1.8 mph 3.5 mph 88 % 0.00 in
13:47 43.7 °F 40.1 °F 29.92 in ENE 1.7 mph 2.3 mph 87 % 0.00 in
13:52 43.4 °F 40.1 °F 29.92 in NE 1.5 mph 3.5 mph 88 % 0.00 in
13:57 43.3 °F 40.0 °F 29.92 in ENE 1.3 mph 3.5 mph 88 % 0.00 in
14:02 43.1 °F 39.8 °F 29.91 in NE 0.9 mph 2.0 mph 88 % 0.00 in
14:07 43.1 °F 40.1 °F 29.91 in NNE 1.6 mph 2.3 mph 89 % 0.00 in
14:12 43.1 °F 39.8 °F 29.91 in NNE 1.0 mph 3.5 mph 88 % 0.00 in
14:17 43.0 °F 39.7 °F 29.91 in Calm   3.5 mph 88 % 0.00 in
14:22 42.9 °F 39.6 °F 29.91 in NNE 0.5 mph 1.2 mph 88 % 0.00 in
14:27 42.8 °F 39.5 °F 29.90 in NNE 0.8 mph 3.0 mph 88 % 0.00 in
14:33 42.8 °F 39.5 °F 29.90 in Calm     88 % 0.00 in
14:38 42.7 °F 39.4 °F 29.90 in NNE 1.9 mph 2.0 mph 88 % 0.00 in
14:43 42.7 °F 39.4 °F 29.90 in Calm   2.3 mph 88 % 0.00 in
14:48 42.6 °F 39.6 °F 29.90 in NNE 0.5 mph 3.5 mph 89 % 0.00 in
14:53 42.6 °F 39.6 °F 29.90 in Calm     89 % 0.00 in
14:58 42.5 °F 39.8 °F 29.90 in NNE 0.3 mph 1.2 mph 90 % 0.00 in
15:03 42.5 °F 39.8 °F 29.90 in Calm     90 % 0.00 in
15:08 42.5 °F 39.8 °F 29.90 in Calm     90 % 0.00 in
15:13 42.5 °F 40.1 °F 29.90 in Calm     91 % 0.00 in
15:18 42.5 °F 40.1 °F 29.90 in Calm     91 % 0.00 in
15:23 42.6 °F 40.2 °F 29.90 in Calm     91 % 0.00 in
15:28 42.6 °F 40.2 °F 29.90 in Calm     91 % 0.00 in
15:33 42.7 °F 40.3 °F 29.90 in Calm     91 % 0.00 in
15:38 42.6 °F 40.4 °F 29.90 in NNE 0.9 mph 2.3 mph 92 % 0.00 in
15:43 42.6 °F 40.4 °F 29.90 in Calm     92 % 0.00 in
15:48 42.7 °F 40.5 °F 29.90 in Calm     92 % 0.00 in
15:53 42.7 °F 40.5 °F 29.90 in Calm     92 % 0.00 in
15:59 42.7 °F 40.5 °F 29.90 in Calm   1.2 mph 92 % 0.00 in
16:04 42.7 °F 40.5 °F 29.91 in NW 2.8 mph 3.5 mph 92 % 0.00 in
16:09 42.5 °F 40.3 °F 29.91 in WNW 1.6 mph 5.8 mph 92 % 0.00 in
16:14 42.2 °F 39.8 °F 29.90 in NW 0.6 mph 3.5 mph 91 % 0.00 in
16:19 41.8 °F 39.1 °F 29.90 in Calm   1.2 mph 90 % 0.00 in
16:24 41.5 °F 38.8 °F 29.90 in Calm     90 % 0.00 in
16:30 41.2 °F 38.5 °F 29.90 in Calm     90 % 0.00 in
16:35 41.0 °F 38.3 °F 29.90 in Calm     90 % 0.00 in
16:40 40.9 °F 38.5 °F 29.90 in Calm     91 % 0.00 in
16:45 40.7 °F 38.3 °F 29.90 in Calm     91 % 0.00 in
16:50 40.7 °F 38.3 °F 29.90 in Calm     91 % 0.00 in
16:55 40.6 °F 38.5 °F 29.90 in Calm     92 % 0.00 in
17:00 40.5 °F 38.4 °F 29.90 in Calm     92 % 0.00 in
17:05 40.5 °F 38.4 °F 29.89 in Calm     92 % 0.00 in
17:10 40.4 °F 38.3 °F 29.90 in Calm     92 % 0.00 in
17:15 40.4 °F 38.3 °F 29.89 in Calm     92 % 0.00 in
17:20 40.5 °F 38.4 °F 29.89 in Calm     92 % 0.00 in
17:25 40.6 °F 38.5 °F 29.89 in Calm     92 % 0.00 in
17:30 40.6 °F 38.7 °F 29.89 in Calm     93 % 0.00 in
17:35 40.7 °F 38.8 °F 29.89 in Calm     93 % 0.00 in
17:40 40.7 °F 38.8 °F 29.89 in Calm     93 % 0.00 in
17:45 40.9 °F 39.0 °F 29.88 in Calm     93 % 0.00 in
17:50 41.0 °F 39.4 °F 29.88 in Calm     94 % 0.00 in
17:56 41.2 °F 39.6 °F 29.88 in Calm     94 % 0.00 in
18:01 41.3 °F 39.7 °F 29.88 in Calm     94 % 0.00 in
18:06 41.3 °F 39.7 °F 29.88 in Calm     94 % 0.00 in
18:11 41.4 °F 39.8 °F 29.88 in Calm     94 % 0.00 in
18:16 41.3 °F 39.7 °F 29.88 in Calm   1.0 mph 94 % 0.00 in
18:21 41.2 °F 39.6 °F 29.87 in Calm     94 % 0.00 in
18:26 41.1 °F 39.5 °F 29.86 in Calm     94 % 0.00 in
18:31 41.0 °F 39.4 °F 29.87 in Calm     94 % 0.00 in
18:36 40.9 °F 39.3 °F 29.86 in Calm     94 % 0.00 in
18:41 40.8 °F 39.2 °F 29.86 in Calm     94 % 0.00 in
18:46 40.7 °F 38.8 °F 29.86 in Calm     93 % 0.00 in
18:51 40.6 °F 38.7 °F 29.86 in Calm     93 % 0.00 in
18:56 40.5 °F 38.7 °F 29.86 in Calm     93 % 0.00 in
19:01 40.4 °F 38.8 °F 29.85 in Calm     94 % 0.00 in
19:06 40.4 °F 38.8 °F 29.85 in Calm     94 % 0.00 in
19:11 40.3 °F 38.7 °F 29.85 in Calm     94 % 0.00 in
19:16 40.2 °F 38.6 °F 29.84 in Calm     94 % 0.00 in
19:21 40.2 °F 38.3 °F 29.84 in Calm     93 % 0.00 in
19:26 40.1 °F 38.2 °F 29.84 in Calm     93 % 0.00 in
19:31 40.1 °F 38.2 °F 29.84 in Calm     93 % 0.00 in
19:36 40.0 °F 38.1 °F 29.84 in Calm     93 % 0.00 in
19:41 40.0 °F 38.1 °F 29.83 in Calm     93 % 0.00 in
19:46 40.0 °F 38.4 °F 29.82 in Calm     94 % 0.00 in
19:51 40.0 °F 38.4 °F 29.82 in Calm     94 % 0.00 in
19:56 40.0 °F 38.5 °F 29.81 in Calm   2.0 mph 94 % 0.00 in
20:01 40.2 °F 38.6 °F 29.81 in Calm     94 % 0.00 in
20:06 40.5 °F 39.2 °F 29.81 in Calm     95 % 0.00 in
20:11 40.8 °F 39.5 °F 29.81 in Calm   1.2 mph 95 % 0.00 in
20:16 41.2 °F 40.1 °F 29.81 in South 1.5 mph 3.5 mph 96 % 0.00 in
20:21 41.7 °F 40.6 °F 29.81 in South 0.5 mph 2.3 mph 96 % 0.00 in
20:26 42.3 °F 41.2 °F 29.80 in Calm     96 % 0.00 in
20:31 43.2 °F 42.4 °F 29.79 in SSE 0.5 mph 4.6 mph 97 % 0.00 in
20:36 43.6 °F 42.8 °F 29.79 in Calm     97 % 0.00 in
20:41 44.2 °F 43.4 °F 29.79 in Calm   1.2 mph 97 % 0.00 in
20:46 44.6 °F 43.8 °F 29.79 in SSE 0.2 mph 2.3 mph 97 % 0.00 in
20:51 45.0 °F 44.2 °F 29.79 in Calm   3.5 mph 97 % 0.00 in
20:56 45.4 °F 44.6 °F 29.79 in SSW 0.9 mph 5.8 mph 97 % 0.00 in
21:01 45.7 °F 44.9 °F 29.79 in WSW 0.6 mph 2.3 mph 97 % 0.00 in
21:06 46.1 °F 45.3 °F 29.79 in WNW 0.3 mph 3.5 mph 97 % 0.00 in
21:12 46.3 °F 45.5 °F 29.79 in WNW 1.9 mph 2.3 mph 97 % 0.00 in
21:17 46.0 °F 45.2 °F 29.79 in WNW 2.4 mph 4.0 mph 97 % 0.00 in
21:22 45.5 °F 44.4 °F 29.78 in NW 2.3 mph 3.5 mph 96 % 0.00 in
21:27 45.0 °F 43.9 °F 29.79 in WNW 2.8 mph 4.0 mph 96 % 0.00 in
21:32 44.6 °F 43.5 °F 29.80 in WNW 4.4 mph 9.2 mph 96 % 0.02 in
21:37 44.1 °F 43.0 °F 29.80 in West 3.4 mph 5.8 mph 96 % 0.03 in
21:42 43.7 °F 42.6 °F 29.80 in WNW 2.4 mph 5.8 mph 96 % 0.04 in
21:47 43.3 °F 42.2 °F 29.80 in WNW 4.0 mph 5.8 mph 96 % 0.07 in
21:52 42.9 °F 41.6 °F 29.80 in West 2.0 mph 3.5 mph 95 % 0.08 in
21:57 42.6 °F 41.3 °F 29.80 in West 2.0 mph 3.5 mph 95 % 0.09 in
22:02 42.3 °F 41.0 °F 29.80 in West 0.9 mph 2.3 mph 95 % 0.09 in
22:07 42.2 °F 40.9 °F 29.80 in Calm     95 % 0.10 in
22:12 42.1 °F 40.8 °F 29.80 in Calm     95 % 0.11 in
22:17 42.0 °F 40.7 °F 29.79 in Calm     95 % 0.11 in
22:22 41.9 °F 40.8 °F 29.79 in Calm     96 % 0.11 in
22:27 41.9 °F 40.8 °F 29.79 in Calm     96 % 0.12 in
22:32 41.9 °F 40.8 °F 29.77 in Calm     96 % 0.10 in
22:37 42.0 °F 40.9 °F 29.77 in Calm     96 % 0.09 in
22:43 42.0 °F 40.9 °F 29.77 in Calm     96 % 0.08 in
22:48 42.0 °F 40.9 °F 29.77 in Calm     96 % 0.05 in
22:53 42.1 °F 41.0 °F 29.77 in Calm     96 % 0.04 in
22:58 42.2 °F 41.1 °F 29.77 in Calm     96 % 0.03 in
23:03 42.4 °F 41.3 °F 29.76 in Calm   1.2 mph 96 % 0.03 in
23:08 42.6 °F 41.5 °F 29.77 in Calm     96 % 0.02 in
23:13 42.8 °F 42.0 °F 29.76 in Calm     97 % 0.01 in
23:18 43.0 °F 42.2 °F 29.77 in Calm     97 % 0.01 in
23:23 43.2 °F 42.4 °F 29.77 in Calm     97 % 0.01 in
23:28 43.5 °F 42.7 °F 29.77 in Calm     97 % 0.01 in
23:33 43.8 °F 43.0 °F 29.77 in West 1.2 mph 2.3 mph 97 % 0.01 in
23:38 44.0 °F 43.2 °F 29.77 in West 0.1 mph 1.0 mph 97 % 0.01 in
23:43 44.1 °F 43.3 °F 29.78 in West 0.4 mph 1.2 mph 97 % 0.01 in
23:48 44.1 °F 43.3 °F 29.78 in Calm     97 % 0.01 in
23:53 44.1 °F 43.3 °F 29.78 in Calm     97 % 0.01 in
23:58 44.0 °F 43.2 °F 29.79 in Calm     97 % 0.01 in
Crab Meadow Weather
Compliments of Weather Underground - 3 mb

Script developed by  Jim McMurry - jmcmurry@mwt.net Adapted for the template by  Wim van der Kuil - Leuven-Template.eu

Recycling: Recycling one aluminum can saves enough energy to run a TV for three hours -- or the equivalent of a half a gallon of gasoline.